Location: Newark
(44.3681°N, 100.3364°W)
Time: 06:03:47
(UTC+00:00)

deb Explorer IX - Pass Details

Date: 24 February 2020
Orbit: 548 x 1100 km, 38.8° (Epoch: 07 April)

Event Time Altitude Azimuth Distance (km) Brightness Sun altitude
Rises 20:18:06 0° 267° (W) 2,730 ? 33.0°
Reaches altitude 10° 20:20:40 10° 253° (WSW) 1,814 ? 32.8°
Maximum altitude 20:23:59 24° 199° (SSW) 1,157 ? 32.5°
Drops below altitude 10° 20:27:22 10° 144° (SE) 1,843 ? 32.3°
Sets 20:29:59 0° 131° (SE) 2,785 ? 32.0°
